Location: Unspecified
(41.9031°N, 12.4386°E)
Time: 05:20:00
(UTC+02:00)

ISS - Pass Details

Date: 31 March 2020
Orbit: 417 x 423 km, 51.6° (Epoch: 29 March)

Event Time Altitude Azimuth Distance (km) Brightness Sun altitude
Rises 21:45:59 0° 307° (NW) 2,362 1.5 -23.8°
Reaches altitude 10° 21:48:07 10° 312° (NW) 1,496 0.1 -24.1°
Enters shadow 21:50:14 33° 330° (NNW) 720 -2.1 -24.4°
